Location: Unspecified
(0.0000°N, 0.0000°E)
Time: 11:35:02
(UTC+00:00)

Vanguard 3 - Pass Details

Date: 22 November 2019
Orbit: 508 x 3263 km, 33.3° (Epoch: 13 December)

Event Time Altitude Azimuth Distance (km) Brightness Sun altitude
Rises 15:14:38 0° 304° (NW) 7,145 12.3 35.2°
Reaches altitude 10° 15:23:01 10° 323° (NW) 6,191 11.9 33.3°
Maximum altitude 15:33:27 16° 356° (N) 5,421 11.3 30.9°
Drops below altitude 10° 15:42:43 10° 29° (NNE) 5,435 11.0 28.8°
Sets 15:49:08 0° 50° (NE) 5,929 11.0 27.3°
